• In Switzerland
  • List of Countries
  • For 7 days
  • Water Temperature
  • Satellite Maps
  • Weather Map
  • Weather Widgets
  • user-avatar
    Login

    Hourly Weather Lewis

    Today, 21 September, Friday

    Time Temperature Precipitation Wind Pressure Humidity
    00:00 +8°C° 0.6 mm 5 mps 736 mmHg 82%
    01:00 +8°C° 0.9 mm 6 mps 736 mmHg 82%
    02:00 +8°C° 0.9 mm 6 mps 735 mmHg 83%
    03:00 +8°C° 0.9 mm 6 mps 735 mmHg 84%
    04:00 +8°C° 0.7 mm 7 mps 735 mmHg 85%
    05:00 +7°C° 0.7 mm 8 mps 736 mmHg 86%
    06:00 +7°C° 0.7 mm 8 mps 736 mmHg 87%
    07:00 +7°C° 0.1 mm 8 mps 736 mmHg 83%
    08:00 +7°C° 0.1 mm 8 mps 737 mmHg 80%
    09:00 +7°C° 0.1 mm 8 mps 738 mmHg 76%
    10:00 +9°C° 0 mm 8 mps 738 mmHg 74%
    11:00 +9°C° 0 mm 8 mps 739 mmHg 71%
    12:00 +10°C° 0 mm 8 mps 740 mmHg 69%
    13:00 +10°C° 0.1 mm 9 mps 740 mmHg 69%
    14:00 +10°C° 0.1 mm 9 mps 741 mmHg 69%
    15:00 +10°C° 0.1 mm 9 mps 741 mmHg 69%
    16:00 +8°C° 0.2 mm 10 mps 742 mmHg 69%
    17:00 +8°C° 0.2 mm 10 mps 742 mmHg 70%
    18:00 +8°C° 0.2 mm 11 mps 742 mmHg 71%
    19:00 +7°C° 0.1 mm 11 mps 742 mmHg 71%
    20:00 +7°C° 0.1 mm 11 mps 742 mmHg 72%
    21:00 +7°C° 0.1 mm 11 mps 742 mmHg 72%
    22:00 +7°C° 0.1 mm 13 mps 743 mmHg 71%
    23:00 +6°C° 0.1 mm 14 mps 743 mmHg 69%

    Tomorrow, 22 September, Saturday

    Time Temperature Precipitation Wind Pressure Humidity
    00:00 +6°C° 0.1 mm 16 mps 743 mmHg 67%
    01:00 +6°C° 0.8 mm 15 mps 744 mmHg 72%
    02:00 +6°C° 0.8 mm 14 mps 744 mmHg 76%
    03:00 +7°C° 0.8 mm 13 mps 745 mmHg 81%
    04:00 +7°C° 0.2 mm 12 mps 746 mmHg 79%
    05:00 +7°C° 0.2 mm 11 mps 747 mmHg 77%
    06:00 +7°C° 0.2 mm 10 mps 748 mmHg 75%
    07:00 +7°C° 0.1 mm 10 mps 748 mmHg 73%
    08:00 +7°C° 0.1 mm 10 mps 749 mmHg 70%
    09:00 +8°C° 0.1 mm 9 mps 750 mmHg 68%
    10:00 +8°C° 0 mm 9 mps 751 mmHg 66%
    11:00 +9°C° 0 mm 8 mps 751 mmHg 64%
    12:00 +10°C° 0 mm 7 mps 751 mmHg 63%
    13:00 +10°C° 0 mm 7 mps 752 mmHg 62%
    14:00 +10°C° 0 mm 6 mps 752 mmHg 62%
    15:00 +10°C° 0 mm 5 mps 753 mmHg 62%
    16:00 +9°C° 0.1 mm 5 mps 753 mmHg 64%
    17:00 +10°C° 0.1 mm 4 mps 753 mmHg 66%
    18:00 +8°C° 0.1 mm 4 mps 753 mmHg 69%
    19:00 +9°C° 0.1 mm 3 mps 753 mmHg 71%
    20:00 +8°C° 0.1 mm 3 mps 753 mmHg 73%
    21:00 +8°C° 0.1 mm 3 mps 754 mmHg 75%
    22:00 +8°C° 0.1 mm 3 mps 753 mmHg 75%
    23:00 +8°C° 0.1 mm 3 mps 753 mmHg 75%

    Day after tomorrow, 23 September, Sunday

    Time Temperature Precipitation Wind Pressure Humidity
    00:00 +7°C° 0.1 mm 3 mps 753 mmHg 76%
    01:00 +7°C° 0 mm 2 mps 753 mmHg 75%
    02:00 +7°C° 0 mm 2 mps 753 mmHg 75%
    03:00 +7°C° 0 mm 2 mps 753 mmHg 74%
    04:00 +7°C° 0 mm 2 mps 753 mmHg 73%
    05:00 +7°C° 0 mm 2 mps 753 mmHg 72%
    06:00 +7°C° 0 mm 2 mps 753 mmHg 71%
    07:00 +8°C° 0 mm 2 mps 753 mmHg 68%
    08:00 +8°C° 0 mm 3 mps 753 mmHg 66%
    09:00 +9°C° 0 mm 3 mps 753 mmHg 63%
    10:00 +9°C° 0 mm 3 mps 754 mmHg 61%
    11:00 +10°C° 0 mm 3 mps 754 mmHg 59%
    12:00 +10°C° 0 mm 4 mps 754 mmHg 57%
    13:00 +10°C° 0 mm 4 mps 755 mmHg 58%
    14:00 +10°C° 0 mm 4 mps 755 mmHg 59%
    15:00 +9°C° 0 mm 5 mps 755 mmHg 60%
    16:00 +10°C° 0 mm 4 mps 756 mmHg 63%
    17:00 +8°C° 0 mm 4 mps 757 mmHg 65%
    18:00 +8°C° 0 mm 4 mps 757 mmHg 68%
    19:00 +7°C° 0 mm 4 mps 758 mmHg 69%
    20:00 +7°C° 0 mm 4 mps 759 mmHg 70%
    21:00 +7°C° 0 mm 4 mps 759 mmHg 70%
    22:00 +7°C° 0 mm 4 mps 760 mmHg 70%
    23:00 +7°C° 0 mm 4 mps 760 mmHg 70%

    24 September, Monday

    Time Temperature Precipitation Wind Pressure Humidity
    00:00 +7°C° 0 mm 4 mps 761 mmHg 70%
    01:00 +7°C° 0 mm 5 mps 761 mmHg 71%
    02:00 +7°C° 0 mm 5 mps 762 mmHg 72%
    03:00 +7°C° 0 mm 6 mps 762 mmHg 73%
    04:00 +7°C° 0.1 mm 6 mps 763 mmHg 72%
    05:00 +6°C° 0.1 mm 7 mps 763 mmHg 71%
    06:00 +6°C° 0.1 mm 8 mps 763 mmHg 70%
    07:00 +7°C° 0 mm 8 mps 764 mmHg 69%
    08:00 +7°C° 0 mm 8 mps 764 mmHg 69%
    09:00 +9°C° 0 mm 8 mps 765 mmHg 69%
    10:00 +8°C° 0.1 mm 9 mps 765 mmHg 68%
    11:00 +10°C° 0.1 mm 9 mps 765 mmHg 67%
    12:00 +9°C° 0.1 mm 10 mps 766 mmHg 66%
    13:00 +9°C° 0 mm 11 mps 766 mmHg 68%
    14:00 +9°C° 0 mm 11 mps 765 mmHg 69%
    15:00 +9°C° 0 mm 11 mps 765 mmHg 71%
    16:00 +9°C° 0 mm 11 mps 765 mmHg 72%
    17:00 +8°C° 0 mm 12 mps 765 mmHg 73%
    18:00 +8°C° 0 mm 12 mps 765 mmHg 74%
    19:00 +8°C° 0 mm 12 mps 765 mmHg 75%
    20:00 +8°C° 0 mm 11 mps 765 mmHg 75%
    21:00 +9°C° 0 mm 11 mps 765 mmHg 76%
    22:00 +9°C° 0 mm 11 mps 765 mmHg 76%
    23:00 +9°C° 0 mm 11 mps 765 mmHg 77%

    25 September, Tuesday

    Time Temperature Precipitation Wind Pressure Humidity
    00:00 +8°C° 0 mm 10 mps 765 mmHg 77%
    01:00 +8°C° 0 mm 10 mps 765 mmHg 77%
    02:00 +8°C° 0 mm 11 mps 765 mmHg 76%
    03:00 +8°C° 0 mm 11 mps 765 mmHg 76%
    04:00 +8°C° 0 mm 11 mps 764 mmHg 76%
    05:00 +8°C° 0 mm 11 mps 764 mmHg 77%
    06:00 +8°C° 0 mm 11 mps 764 mmHg 77%
    07:00 +8°C° 0 mm 11 mps 764 mmHg 76%
    08:00 +8°C° 0 mm 11 mps 764 mmHg 75%
    09:00 +9°C° 0 mm 11 mps 763 mmHg 74%
    10:00 +9°C° 0 mm 12 mps 763 mmHg 74%
    11:00 +9°C° 0 mm 12 mps 763 mmHg 74%
    12:00 +9°C° 0 mm 12 mps 762 mmHg 74%
    13:00 +9°C° 0 mm 13 mps 762 mmHg 75%
    14:00 +9°C° 0 mm 13 mps 761 mmHg 76%
    15:00 +9°C° 0 mm 13 mps 760 mmHg 77%
    16:00 +9°C° 0.1 mm 13 mps 760 mmHg 77%
    17:00 +9°C° 0.1 mm 13 mps 759 mmHg 78%
    18:00 +9°C° 0.1 mm 13 mps 758 mmHg 78%
    19:00 +9°C° 0 mm 14 mps 758 mmHg 79%
    20:00 +9°C° 0 mm 14 mps 758 mmHg 81%
    21:00 +9°C° 0 mm 14 mps 757 mmHg 82%
    22:00 +9°C° 0.1 mm 15 mps 757 mmHg 82%
    23:00 +10°C° 0.1 mm 15 mps 756 mmHg 82%

    26 September, Wednesday

    Time Temperature Precipitation Wind Pressure Humidity
    00:00 +10°C° 0.1 mm 16 mps 756 mmHg 82%
    01:00 +10°C° 0.3 mm 16 mps 755 mmHg 83%
    02:00 +10°C° 0.3 mm 15 mps 755 mmHg 83%
    03:00 +10°C° 0.3 mm 15 mps 754 mmHg 83%
    04:00 +10°C° 0.8 mm 15 mps 754 mmHg 84%
    05:00 +10°C° 0.8 mm 15 mps 754 mmHg 85%
    06:00 +9°C° 0.8 mm 14 mps 754 mmHg 86%
    07:00 +9°C° 0.7 mm 14 mps 754 mmHg 86%
    08:00 +10°C° 0.7 mm 14 mps 754 mmHg 87%
    09:00 +10°C° 0.7 mm 14 mps 753 mmHg 87%
    10:00 +10°C° 0.8 mm 14 mps 753 mmHg 88%
    11:00 +10°C° 0.8 mm 14 mps 753 mmHg 88%
    12:00 +10°C° 0.8 mm 14 mps 753 mmHg 89%
    13:00 +10°C° 1.3 mm 13 mps 753 mmHg 89%
    14:00 +10°C° 1.3 mm 13 mps 752 mmHg 90%
    15:00 +10°C° 1.3 mm 13 mps 752 mmHg 90%
    16:00 +10°C° 1.1 mm 13 mps 751 mmHg 91%
    17:00 +10°C° 1.1 mm 12 mps 751 mmHg 91%
    18:00 +11°C° 1.1 mm 11 mps 751 mmHg 92%
    19:00 +11°C° 1.5 mm 10 mps 750 mmHg 92%
    20:00 +10°C° 1.5 mm 9 mps 750 mmHg 93%
    21:00 +10°C° 1.5 mm 8 mps 750 mmHg 94%
    22:00 +9°C° 1 mm 8 mps 750 mmHg 92%
    23:00 +9°C° 1 mm 7 mps 750 mmHg 90%
    Show more